Retour au catalogue

THORAD DELTA 1 DEB

ActifLEO
NORAD 8560·DEBRIS·🇺🇸 United States

Lancé Nov 15, 1974 depuis Vandenberg Space Force Base

Loading…

Prochains Passages (prochaines 24 heures)

TLE

FraisSource: Space-Track

Époque: Sep 14, 2026, 07:14 UTC

1 08560U 74089CX  26257.30138993  .00000279  00000-0  43802-3 0  9993
2 08560 102.1173 211.0625 0402248 134.2814 229.2050 13.32831467505633

Suivez THORAD DELTA 1 DEB en temps réel avec AllMySat

Download on the App Store